Weather History for Columbia, MO

Change the Weather History Date:

Thursday, December 25, 2014

  Actual Average Record
Temperature  
Mean Temperature 41 °F 30 °F  
Max Temperature 52 °F 39 °F 74 °F (1889)
Min Temperature 30 °F 22 °F -19 °F (1983)
Degree Days  
Heating Degree Days 24 35  
Month to date heating degree days 672 799  
Since 1 July heating degree days 1753 1784  
Cooling Degree Days 0 0  
Month to date cooling degree days 0 0  
Year to date cooling degree days 1266 1249  
Moisture  
Dew Point 30 °F    
Average Humidity 67    
Maximum Humidity 92    
Minimum Humidity 42    
Precipitation  
Precipitation 0.00 in 0.07 in 0.56 in (1957)
Month to date precipitation 2.13 2.03  
Year to date precipitation 44.07 42.21  
Snow  
Snow 0.00 in 0.10 in 3.40 in (1987)
Month to date snowfall 1.0 3.3  
Since 1 July snowfall 1.8 4.2  
Snow Depth 0.00 in    
Sea Level Pressure  
Sea Level Pressure 29.91 in    
Wind  
Wind Speed 14 mph (South)    
Max Wind Speed 25 mph    
Max Gust Speed 33 mph    
Visibility 10 miles    
Events      
T = Trace of Precipitation, MM = Missing Value Source: NWS Daily Summary

Daily Weather History Graph

Daily Weather History Graph

Search for Another Location

Airport:

Trip Planner

Search our weather history database for the weather conditions in past years. The results will help you decide how hot, cold, wet, or windy it might be!

Date:

Astronomy

Dec. 25, 2014 Rise Set
Actual Time 7:25 AM CST 4:52 PM CST
Civil Twilight 6:55 AM CST 5:22 PM CST
Nautical Twilight 6:22 AM CST 5:56 PM CST
Astronomical Twilight 5:49 AM CST 6:28 PM CST
Moon 10:01 AM CST (12/25) 9:24 PM CST (12/25)
Length of Visible Light 10h 27m
Length of Day
9h 27m
Waxing Crescent, 18% of the Moon is Illuminated
Dec 25
Waxing Crescent
Dec 28
First Quarter
Jan 4
Full
Jan 13
Last Quarter
Jan 20
New

Hourly Weather History & Observations

Time (CST) Temp. Windchill Dew Point Humidity Pressure Visibility Wind Dir Wind Speed Gust Speed Precip Events Conditions
12:54 AM 34.0 °F 26.0 °F 28.9 °F 82% 29.89 in 10.0 mi WSW 10.4 mph - N/A   Mostly Cloudy
1:54 AM 30.9 °F 24.3 °F 28.9 °F 92% 29.91 in 10.0 mi SSW 6.9 mph - N/A   Scattered Clouds
2:54 AM 30.9 °F 24.3 °F 28.0 °F 89% 29.91 in 10.0 mi South 6.9 mph - N/A   Clear
3:54 AM 30.9 °F 22.8 °F 28.0 °F 89% 29.91 in 10.0 mi South 9.2 mph - N/A   Clear
4:54 AM 30.0 °F 22.4 °F 28.0 °F 92% 29.91 in 10.0 mi South 8.1 mph - N/A   Clear
5:54 AM 30.2 °F 21.3 °F 28.4 °F 93% 29.90 in 10.0 mi South 10.4 mph - N/A   Clear
6:54 AM 30.0 °F 21.1 °F 27.0 °F 88% 29.93 in 10.0 mi SSE 10.4 mph - N/A   Clear
7:54 AM 30.9 °F 21.7 °F 28.0 °F 89% 29.95 in 10.0 mi South 11.5 mph - N/A   Clear
8:54 AM 34.0 °F 24.6 °F 30.0 °F 85% 29.96 in 10.0 mi South 13.8 mph - N/A   Clear
9:54 AM 37.9 °F 28.5 °F 30.9 °F 76% 29.98 in 10.0 mi South 17.3 mph 21.9 mph N/A   Clear
10:54 AM 43.0 °F 35.7 °F 33.1 °F 68% 29.96 in 10.0 mi South 15.0 mph - N/A   Clear
11:54 AM 46.0 °F 39.3 °F 32.0 °F 58% 29.93 in 10.0 mi South 16.1 mph - N/A   Clear
12:54 PM 50.0 °F - 32.0 °F 50% 29.90 in 10.0 mi South 16.1 mph - N/A   Clear
1:54 PM 51.1 °F - 30.9 °F 46% 29.89 in 10.0 mi South 17.3 mph 26.5 mph N/A   Clear
2:54 PM 52.0 °F - 30.0 °F 43% 29.89 in 10.0 mi South 17.3 mph 32.2 mph N/A   Clear
3:54 PM 50.0 °F - 28.9 °F 44% 29.88 in 10.0 mi South 19.6 mph 24.2 mph N/A   Clear
4:54 PM 48.0 °F - 28.9 °F 48% 29.87 in 10.0 mi SSE 18.4 mph - N/A   Clear
5:54 PM 46.9 °F - 30.0 °F 52% 29.88 in 10.0 mi South 21.9 mph 28.8 mph N/A   Clear
6:54 PM 46.0 °F 39.0 °F 30.0 °F 54% 29.87 in 10.0 mi SSE 17.3 mph 26.5 mph N/A   Clear
7:54 PM 46.0 °F 38.3 °F 30.9 °F 56% 29.88 in 10.0 mi SSE 20.7 mph 29.9 mph N/A   Clear
8:54 PM 45.0 °F 37.6 °F 30.9 °F 58% 29.90 in 10.0 mi South 17.3 mph - N/A   Clear
9:54 PM 45.0 °F 38.5 °F 30.9 °F 58% 29.91 in 10.0 mi South 13.8 mph - N/A   Clear
10:54 PM 44.1 °F 38.1 °F 30.9 °F 60% 29.93 in 10.0 mi South 11.5 mph - N/A   Clear
11:54 PM 43.0 °F 36.4 °F 32.0 °F 65% 29.94 in 10.0 mi South 12.7 mph - N/A   Clear